Simultaneous Nadir Overpasses (SNOs) Predictions

Prediction of SNOs between METOP-B and TERRA Satellite Orbit:

Table of predicted SNOs for the next 14.0 days since TLE Epoch: 6/23/2017
Index Date (METOP-B) Time (METOP-B) Lat,Lon (METOP-B) SZA (METOP-B ) Date (TERRA) Time (TERRA) Lat,Lon (TERRA) SZA (TERRA ) Distance(km) Time Diff (sec)
1 06/26/2017 16:45:47 81.33, -23.95 60.87 06/26/2017 16:46:31 81.33, -23.83 60.90 1.87 44
2 06/26/2017 17:36:26 -81.34, 143.98 119.06 06/26/2017 17:35:58 -81.33, 143.80 119.10 3.16 28
3 06/29/2017 12:20:07 81.34, 42.73 61.02 06/29/2017 12:20:45 81.34, 42.86 61.06 2.41 38
4 06/29/2017 13:10:46 -81.34,-149.33 118.91 06/29/2017 13:10:12 -81.34,-149.49 118.94 2.58 34
5 07/02/2017 07:54:28 81.33, 108.99 61.17 07/02/2017 07:55:00 81.33, 109.12 61.20 2.30 32
6 07/02/2017 08:45:07 -81.34, -83.05 118.75 07/02/2017 08:44:27 -81.34, -83.21 118.80 2.67 40
7 07/05/2017 03:28:47 81.34, 175.62 61.42 07/05/2017 03:29:13 81.34, 175.72 61.45 1.75 26




NCC Satellite Simultaneous Nadir Overpasses (SNOs) Prediction Service
